Time,TemperatureF,DewpointF,PressureIn,WindDirection,WindDirectionDegrees,WindSpeedMPH,WindSpeedGustMPH,Humidity,HourlyPrecipIn,Conditions,Clouds,dailyrainin,SoftwareType,DateUTC
2013-05-01 00:13:00,64.9,59.0,30.02,South,177,1.0,3.0,82,0.00,,,0.00,weatherlink.com 1.10,2013-05-01 05:13:00,
2013-05-01 00:28:00,65.2,60.0,30.03,South,174,3.0,4.0,83,0.00,,,0.00,weatherlink.com 1.10,2013-05-01 05:28:00,
2013-05-01 00:43:00,64.6,59.0,30.03,South,173,2.0,4.0,83,0.00,,,0.00,weatherlink.com 1.10,2013-05-01 05:43:00,
2013-05-01 00:58:00,63.9,59.0,30.04,South,173,2.0,4.0,84,0.00,,,0.00,weatherlink.com 1.10,2013-05-01 05:58:00,
2013-05-01 01:13:00,63.6,59.0,30.04,South,180,3.0,4.0,85,0.00,,,0.00,weatherlink.com 1.10,2013-05-01 06:13:00,
2013-05-01 01:28:00,63.2,59.0,30.04,South,180,3.0,4.0,86,0.00,,,0.00,weatherlink.com 1.10,2013-05-01 06:28:00,
2013-05-01 01:43:00,62.4,58.0,30.04,South,180,3.0,5.0,86,0.00,,,0.00,weatherlink.com 1.10,2013-05-01 06:43:00,
2013-05-01 01:58:00,62.4,59.0,30.04,South,180,3.0,4.0,87,0.00,,,0.00,weatherlink.com 1.10,2013-05-01 06:58:00,
2013-05-01 02:13:00,61.8,58.0,30.04,South,180,2.0,3.0,88,0.00,,,0.00,weatherlink.com 1.10,2013-05-01 07:13:00,
2013-05-01 02:28:00,61.5,58.0,30.04,South,173,1.0,4.0,88,0.00,,,0.00,weatherlink.com 1.10,2013-05-01 07:28:00,
2013-05-01 02:43:00,60.0,57.0,30.04,South,173,1.0,2.0,90,0.00,,,0.00,weatherlink.com 1.10,2013-05-01 07:43:00,
2013-05-01 02:59:00,59.6,57.0,30.05,South,173,1.0,3.0,90,0.00,,,0.00,weatherlink.com 1.10,2013-05-01 07:59:00,
2013-05-01 03:14:00,59.3,57.0,30.05,South,172,0.0,2.0,91,0.00,,,0.00,weatherlink.com 1.10,2013-05-01 08:14:00,
2013-05-01 03:29:00,58.6,56.0,30.06,South,172,0.0,0.0,91,0.00,,,0.00,weatherlink.com 1.10,2013-05-01 08:29:00,
2013-05-01 03:44:00,57.6,55.0,30.06,South,172,0.0,1.0,92,0.00,,,0.00,weatherlink.com 1.10,2013-05-01 08:44:00,
2013-05-01 03:59:00,56.6,55.0,30.07,South,172,1.0,2.0,93,0.00,,,0.00,weatherlink.com 1.10,2013-05-01 08:59:00,
2013-05-01 04:14:00,56.3,55.0,30.08,South,172,1.0,2.0,95,0.00,,,0.00,weatherlink.com 1.10,2013-05-01 09:14:00,
2013-05-01 04:29:00,55.6,54.0,30.08,South,172,2.0,3.0,95,0.00,,,0.00,weatherlink.com 1.10,2013-05-01 09:29:00,
2013-05-01 04:44:00,55.9,55.0,30.09,SSE,168,1.0,4.0,96,0.00,,,0.00,weatherlink.com 1.10,2013-05-01 09:44:00,
2013-05-01 04:59:00,55.7,55.0,30.09,SSE,163,2.0,3.0,96,0.00,,,0.00,weatherlink.com 1.10,2013-05-01 09:59:00,
2013-05-01 05:14:00,55.6,55.0,30.10,SSE,168,2.0,4.0,96,0.00,,,0.00,weatherlink.com 1.10,2013-05-01 10:14:00,
2013-05-01 05:29:00,55.8,55.0,30.10,SSE,167,2.0,4.0,96,0.00,,,0.00,weatherlink.com 1.10,2013-05-01 10:29:00,
2013-05-01 05:44:00,57.1,55.0,30.11,SSE,166,2.0,4.0,94,0.00,,,0.00,weatherlink.com 1.10,2013-05-01 10:44:00,
2013-05-01 05:59:00,56.8,55.0,30.12,SSE,166,1.0,2.0,92,0.00,,,0.00,weatherlink.com 1.10,2013-05-01 10:59:00,
2013-05-01 06:14:00,57.2,55.0,30.12,SSE,162,0.0,2.0,91,0.00,,,0.00,weatherlink.com 1.10,2013-05-01 11:14:00,
2013-05-01 06:29:00,57.2,55.0,30.13,SSE,162,0.0,2.0,91,0.00,,,0.00,weatherlink.com 1.10,2013-05-01 11:29:00,
2013-05-01 06:44:00,57.2,55.0,30.13,SSE,157,3.0,3.0,92,0.00,,,0.00,weatherlink.com 1.10,2013-05-01 11:44:00,
2013-05-01 06:59:00,59.0,56.0,30.13,SSE,157,0.0,2.0,90,0.00,,,0.00,weatherlink.com 1.10,2013-05-01 11:59:00,
2013-05-01 07:14:00,61.5,58.0,30.14,South,178,3.0,3.0,87,0.00,,,0.00,weatherlink.com 1.10,2013-05-01 12:14:00,
2013-05-01 07:29:00,63.9,58.0,30.14,SSE,166,3.0,5.0,80,0.00,,,0.00,weatherlink.com 1.10,2013-05-01 12:29:00,
2013-05-01 07:44:00,65.2,57.0,30.14,SSE,168,4.0,6.0,76,0.00,,,0.00,weatherlink.com 1.10,2013-05-01 12:44:00,
2013-05-01 07:59:00,66.2,58.0,30.14,South,172,3.0,6.0,75,0.00,,,0.00,weatherlink.com 1.10,2013-05-01 12:59:00,
2013-05-01 08:14:00,67.1,59.0,30.15,South,172,5.0,7.0,74,0.00,,,0.00,weatherlink.com 1.10,2013-05-01 13:14:00,
2013-05-01 08:29:00,68.5,59.0,30.15,South,169,7.0,8.0,71,0.00,,,0.00,weatherlink.com 1.10,2013-05-01 13:29:00,
2013-05-01 08:44:00,70.5,59.0,30.15,South,172,4.0,9.0,67,0.00,,,0.00,weatherlink.com 1.10,2013-05-01 13:44:00,
2013-05-01 08:59:00,71.5,59.0,30.15,SSW,196,3.0,8.0,65,0.00,,,0.00,weatherlink.com 1.10,2013-05-01 13:59:00,
2013-05-01 09:14:00,72.8,59.0,30.15,South,175,4.0,7.0,63,0.00,,,0.00,weatherlink.com 1.10,2013-05-01 14:14:00,
2013-05-01 09:30:00,74.2,59.0,30.16,SSW,194,4.0,8.0,60,0.00,,,0.00,weatherlink.com 1.10,2013-05-01 14:30:00,
2013-05-01 09:45:00,75.0,59.0,30.15,SSW,199,3.0,9.0,58,0.00,,,0.00,weatherlink.com 1.10,2013-05-01 14:45:00,
2013-05-01 10:00:00,75.5,60.0,30.16,WSW,237,3.0,8.0,58,0.00,,,0.00,weatherlink.com 1.10,2013-05-01 15:00:00,
2013-05-01 10:15:00,76.6,59.0,30.15,South,190,6.0,12.0,54,0.00,,,0.00,weatherlink.com 1.10,2013-05-01 15:15:00,
2013-05-01 10:30:00,77.1,59.0,30.16,SSW,206,3.0,10.0,53,0.00,,,0.00,weatherlink.com 1.10,2013-05-01 15:30:00,
2013-05-01 10:45:00,77.4,58.0,30.16,SSW,202,1.0,9.0,52,0.00,,,0.00,weatherlink.com 1.10,2013-05-01 15:45:00,
2013-05-01 11:00:00,78.0,58.0,30.16,SW,225,2.0,8.0,51,0.00,,,0.00,weatherlink.com 1.10,2013-05-01 16:00:00,
2013-05-01 11:15:00,79.3,58.0,30.16,South,172,9.0,13.0,49,0.00,,,0.00,weatherlink.com 1.10,2013-05-01 16:15:00,
2013-05-01 11:30:00,79.6,60.0,30.16,South,184,8.0,10.0,52,0.00,,,0.00,weatherlink.com 1.10,2013-05-01 16:30:00,
2013-05-01 11:45:00,79.2,58.0,30.16,South,187,10.0,10.0,49,0.00,,,0.00,weatherlink.com 1.10,2013-05-01 16:45:00,
2013-05-01 12:00:00,79.6,58.0,30.15,SSW,195,3.0,8.0,47,0.00,,,0.00,weatherlink.com 1.10,2013-05-01 17:00:00,
2013-05-01 12:15:00,80.6,57.0,30.15,South,189,8.0,11.0,44,0.00,,,0.00,weatherlink.com 1.10,2013-05-01 17:15:00,
2013-05-01 12:30:00,81.0,56.0,30.15,SSE,156,7.0,14.0,43,0.00,,,0.00,weatherlink.com 1.10,2013-05-01 17:30:00,
2013-05-01 12:45:00,81.3,56.0,30.15,SSW,208,2.0,13.0,42,0.00,,,0.00,weatherlink.com 1.10,2013-05-01 17:45:00,
2013-05-01 13:00:00,81.4,57.0,30.14,SE,128,4.0,13.0,43,0.00,,,0.00,weatherlink.com 1.10,2013-05-01 18:00:00,
2013-05-01 13:15:00,82.3,56.0,30.14,ESE,114,3.0,12.0,41,0.00,,,0.00,weatherlink.com 1.10,2013-05-01 18:15:00,
2013-05-01 13:30:00,82.0,57.0,30.14,South,182,9.0,14.0,42,0.00,,,0.00,weatherlink.com 1.10,2013-05-01 18:30:00,
2013-05-01 13:45:00,83.1,55.0,30.14,SE,124,7.0,14.0,38,0.00,,,0.00,weatherlink.com 1.10,2013-05-01 18:45:00,
2013-05-01 14:00:00,82.8,55.0,30.14,SSE,155,11.0,17.0,39,0.00,,,0.00,weatherlink.com 1.10,2013-05-01 19:00:00,
2013-05-01 14:15:00,82.5,56.0,30.14,SSE,160,5.0,16.0,40,0.00,,,0.00,weatherlink.com 1.10,2013-05-01 19:15:00,
2013-05-01 14:30:00,82.8,56.0,30.14,South,178,16.0,18.0,40,0.00,,,0.00,weatherlink.com 1.10,2013-05-01 19:30:00,
2013-05-01 14:45:00,82.5,56.0,30.14,SSE,167,8.0,20.0,40,0.00,,,0.00,weatherlink.com 1.10,2013-05-01 19:45:00,
2013-05-01 15:00:00,83.7,55.0,30.14,South,176,11.0,19.0,38,0.00,,,0.00,weatherlink.com 1.10,2013-05-01 20:00:00,
2013-05-01 15:15:00,82.9,56.0,30.14,SSW,199,7.0,13.0,40,0.00,,,0.00,weatherlink.com 1.10,2013-05-01 20:15:00,
2013-05-01 15:30:00,82.5,56.0,30.14,South,188,10.0,21.0,40,0.00,,,0.00,weatherlink.com 1.10,2013-05-01 20:30:00,
2013-05-01 15:45:00,82.9,57.0,30.14,SSW,201,12.0,17.0,41,0.00,,,0.00,weatherlink.com 1.10,2013-05-01 20:45:00,
2013-05-01 16:00:00,82.3,56.0,30.15,South,169,9.0,19.0,41,0.00,,,0.00,weatherlink.com 1.10,2013-05-01 21:00:00,
2013-05-01 16:15:00,82.8,57.0,30.14,SE,132,10.0,20.0,42,0.00,,,0.00,weatherlink.com 1.10,2013-05-01 21:15:00,
2013-05-01 16:30:00,82.6,57.0,30.14,SSE,160,9.0,16.0,41,0.00,,,0.00,weatherlink.com 1.10,2013-05-01 21:30:00,
2013-05-01 16:45:00,82.9,56.0,30.14,SSE,166,10.0,17.0,40,0.00,,,0.00,weatherlink.com 1.10,2013-05-01 21:45:00,
2013-05-01 17:00:00,82.0,57.0,30.15,SSE,160,9.0,15.0,42,0.00,,,0.00,weatherlink.com 1.10,2013-05-01 22:00:00,
2013-05-01 17:15:00,82.4,57.0,30.14,SSE,157,10.0,16.0,42,0.00,,,0.00,weatherlink.com 1.10,2013-05-01 22:15:00,
2013-05-01 17:30:00,81.6,56.0,30.14,South,179,9.0,20.0,42,0.00,,,0.00,weatherlink.com 1.10,2013-05-01 22:30:00,
2013-05-01 17:45:00,81.2,57.0,30.14,South,182,12.0,18.0,43,0.00,,,0.00,weatherlink.com 1.10,2013-05-01 22:45:00,
2013-05-01 18:00:00,81.5,57.0,30.14,South,174,10.0,15.0,44,0.00,,,0.00,weatherlink.com 1.10,2013-05-01 23:00:00,
2013-05-01 18:15:00,81.3,57.0,30.14,SSE,155,9.0,15.0,43,0.00,,,0.00,weatherlink.com 1.10,2013-05-01 23:15:00,
2013-05-01 18:30:00,81.0,57.0,30.14,South,180,9.0,17.0,44,0.00,,,0.00,weatherlink.com 1.10,2013-05-01 23:30:00,
2013-05-01 18:45:00,80.4,57.0,30.14,SSE,164,7.0,15.0,45,0.00,,,0.00,weatherlink.com 1.10,2013-05-01 23:45:00,
2013-05-01 19:00:00,79.8,58.0,30.15,South,181,7.0,15.0,47,0.00,,,0.00,weatherlink.com 1.10,2013-05-02 00:00:00,
2013-05-01 19:15:00,78.9,57.0,30.15,SSE,152,6.0,11.0,48,0.00,,,0.00,weatherlink.com 1.10,2013-05-02 00:15:00,
2013-05-01 19:30:00,77.5,57.0,30.15,SSE,157,4.0,7.0,50,0.00,,,0.00,weatherlink.com 1.10,2013-05-02 00:30:00,
2013-05-01 19:45:00,76.6,57.0,30.15,SSE,164,4.0,8.0,51,0.00,,,0.00,weatherlink.com 1.10,2013-05-02 00:45:00,
2013-05-01 20:00:00,76.2,57.0,30.16,SE,144,3.0,6.0,52,0.00,,,0.00,weatherlink.com 1.10,2013-05-02 01:00:00,
2013-05-01 20:15:00,75.7,57.0,30.16,SSE,165,2.0,6.0,53,0.00,,,0.00,weatherlink.com 1.10,2013-05-02 01:15:00,
2013-05-01 20:30:00,73.9,57.0,30.16,SSE,165,1.0,3.0,56,0.00,,,0.00,weatherlink.com 1.10,2013-05-02 01:30:00,
2013-05-01 20:45:00,72.5,57.0,30.17,SSE,165,0.0,2.0,59,0.00,,,0.00,weatherlink.com 1.10,2013-05-02 01:45:00,
2013-05-01 21:00:00,70.2,58.0,30.17,SSE,165,0.0,2.0,65,0.00,,,0.00,weatherlink.com 1.10,2013-05-02 02:00:00,
2013-05-01 21:15:00,68.5,58.0,30.17,SSE,165,0.0,1.0,70,0.00,,,0.00,weatherlink.com 1.10,2013-05-02 02:15:00,
2013-05-01 21:30:00,68.9,58.0,30.17,SSE,165,0.0,0.0,68,0.00,,,0.00,weatherlink.com 1.10,2013-05-02 02:30:00,
2013-05-01 21:45:00,67.5,58.0,30.17,SSE,165,0.0,0.0,72,0.00,,,0.00,weatherlink.com 1.10,2013-05-02 02:45:00,
2013-05-01 22:00:00,65.7,58.0,30.18,SSE,165,0.0,0.0,76,0.00,,,0.00,weatherlink.com 1.10,2013-05-02 03:00:00,
2013-05-01 22:15:00,65.3,58.0,30.17,SSE,165,0.0,2.0,78,0.00,,,0.00,weatherlink.com 1.10,2013-05-02 03:15:00,
2013-05-01 22:30:00,64.9,58.0,30.17,SSE,165,0.0,1.0,79,0.00,,,0.00,weatherlink.com 1.10,2013-05-02 03:30:00,
2013-05-01 22:45:00,64.8,58.0,30.17,SSE,165,1.0,2.0,79,0.00,,,0.00,weatherlink.com 1.10,2013-05-02 03:45:00,
2013-05-01 23:00:00,64.9,58.0,30.17,SSE,165,1.0,2.0,78,0.00,,,0.00,weatherlink.com 1.10,2013-05-02 04:00:00,
2013-05-01 23:15:00,63.3,58.0,30.17,SSE,165,0.0,1.0,82,0.00,,,0.00,weatherlink.com 1.10,2013-05-02 04:15:00,
2013-05-01 23:30:00,62.2,57.0,30.17,SSE,165,0.0,0.0,84,0.00,,,0.00,weatherlink.com 1.10,2013-05-02 04:30:00,
2013-05-01 23:45:00,62.2,57.0,30.17,SSE,165,0.0,0.0,83,0.00,,,0.00,weatherlink.com 1.10,2013-05-02 04:45:00,